Location: Bodest
(46.3000°N, 22.5667°E)
Time: 07:10:25
(UTC+00:00)

Okean 1 Rocket - Visible Passes

Search period start: 21 May 2022 00:00
Search period end: 31 May 2022 00:00
Orbit: 605 x 635 km, 82.5° (Epoch: 20 May)

Date Brightness Start Highest point End Pass type
(mag) Time Alt. Az. Time Alt. Az. Time Alt. Az.
21 May 5.2 22:32:14 10° NNE 22:35:24 19° ENE 22:37:13 15° E visible
22 May 3.5 00:09:20 10° NNW 00:13:33 45° W 00:14:22 40° SW visible
22 May 4.4 22:49:18 10° N 22:53:18 32° ENE 22:54:37 27° ESE visible
23 May 4.3 00:27:25 10° NNW 00:31:03 25° W 00:31:47 24° WSW visible
23 May 3.4 23:06:43 10° N 23:11:05 58° ENE 23:12:02 46° SE visible
24 May 5.0 00:46:02 10° NW 00:48:28 15° W 00:49:12 14° W visible
24 May 5.6 21:48:29 10° NE 21:50:17 12° ENE 21:52:05 10° E visible
24 May 3.0 23:24:20 10° NNW 23:28:46 78° W 23:29:28 61° SSW visible
25 May 5.0 22:04:55 10° NNE 22:08:16 21° ENE 22:09:45 18° E visible
25 May 3.6 23:42:10 10° NNW 23:46:21 42° W 23:46:55 40° WSW visible
26 May 4.2 22:22:03 10° N 22:26:08 35° ENE 22:27:13 30° ESE visible
27 May 4.4 00:00:18 10° NW 00:03:50 24° W 00:04:22 23° W visible
27 May 3.3 22:39:29 10° N 22:43:54 63° E 22:44:40 53° SE visible
28 May 5.1 00:19:02 10° NW 00:21:14 14° W 00:21:50 13° W visible
28 May 5.5 21:21:00 10° NE 21:23:09 13° ENE 21:24:59 11° E visible
28 May 3.0 22:57:09 10° NNW 23:01:34 72° W 23:02:09 62° SSW visible
29 May 4.8 21:37:37 10° NNE 21:41:06 22° ENE 21:42:29 19° E visible
29 May 3.8 23:15:01 10° NNW 23:19:09 39° W 23:19:39 37° WSW visible
30 May 4.0 21:54:48 10° N 21:58:58 38° ENE 21:59:59 33° ESE visible
30 May 4.6 23:33:10 10° NW 23:36:37 22° W 23:37:09 22° W visible
